Hourly Weather Gloucester

Today, 29 September, Tuesday

Time Temperature Precipitation Wind Pressure Humidity
00:00 +15°C° 0.1 mm 1 mps 754 mmHg 97%
01:00 +14°C° 0.1 mm 2 mps 754 mmHg 96%
02:00 +14°C° 0.1 mm 2 mps 754 mmHg 94%
03:00 +13°C° 0.1 mm 2 mps 754 mmHg 93%
04:00 +13°C° 0 mm 2 mps 754 mmHg 92%
05:00 +13°C° 0 mm 2 mps 755 mmHg 91%
06:00 +12°C° 0 mm 2 mps 755 mmHg 90%
07:00 +13°C° 0 mm 2 mps 755 mmHg 87%
08:00 +13°C° 0 mm 2 mps 755 mmHg 84%
09:00 +14°C° 0 mm 2 mps 755 mmHg 81%
10:00 +14°C° 0 mm 2 mps 755 mmHg 79%
11:00 +15°C° 0 mm 2 mps 755 mmHg 76%
12:00 +15°C° 0 mm 2 mps 755 mmHg 73%
13:00 +16°C° 0 mm 1 mps 755 mmHg 70%
14:00 +16°C° 0 mm 1 mps 755 mmHg 68%
15:00 +18°C° 0 mm 1 mps 755 mmHg 65%
16:00 +15°C° 0 mm 2 mps 754 mmHg 69%
17:00 +14°C° 0 mm 2 mps 754 mmHg 74%
18:00 +13°C° 0 mm 2 mps 754 mmHg 78%
19:00 +12°C° 0 mm 2 mps 754 mmHg 81%
20:00 +10°C° 0 mm 2 mps 754 mmHg 83%
21:00 +9°C° 0 mm 2 mps 754 mmHg 85%
22:00 +9°C° 0 mm 2 mps 754 mmHg 85%
23:00 +9°C° 0 mm 2 mps 753 mmHg 85%

Tomorrow, 30 September, Wednesday

Time Temperature Precipitation Wind Pressure Humidity
00:00 +9°C° 0 mm 2 mps 753 mmHg 84%
01:00 +9°C° 0 mm 2 mps 753 mmHg 85%
02:00 +8°C° 0 mm 2 mps 752 mmHg 86%
03:00 +8°C° 0 mm 2 mps 752 mmHg 86%
04:00 +8°C° 0 mm 2 mps 751 mmHg 87%
05:00 +8°C° 0 mm 2 mps 750 mmHg 88%
06:00 +8°C° 0 mm 2 mps 750 mmHg 88%
07:00 +10°C° 0 mm 3 mps 749 mmHg 86%
08:00 +11°C° 0 mm 4 mps 749 mmHg 84%
09:00 +13°C° 0 mm 5 mps 748 mmHg 82%
10:00 +13°C° 0.1 mm 5 mps 748 mmHg 83%
11:00 +12°C° 0.1 mm 5 mps 747 mmHg 83%
12:00 +12°C° 0.1 mm 5 mps 746 mmHg 84%
13:00 +11°C° 1 mm 6 mps 746 mmHg 86%
14:00 +11°C° 1 mm 7 mps 745 mmHg 89%
15:00 +11°C° 1 mm 7 mps 744 mmHg 92%
16:00 +11°C° 1.2 mm 6 mps 744 mmHg 93%
17:00 +12°C° 1.2 mm 5 mps 743 mmHg 93%
18:00 +12°C° 1.2 mm 4 mps 743 mmHg 94%
19:00 +12°C° 1.2 mm 4 mps 743 mmHg 93%
20:00 +11°C° 1.2 mm 4 mps 743 mmHg 93%
21:00 +11°C° 1.2 mm 4 mps 743 mmHg 92%
22:00 +10°C° 0 mm 3 mps 743 mmHg 92%
23:00 +9°C° 0 mm 3 mps 743 mmHg 93%

Day after tomorrow, 1 October, Thursday

Time Temperature Precipitation Wind Pressure Humidity
00:00 +8°C° 0 mm 2 mps 743 mmHg 94%
01:00 +8°C° 0 mm 2 mps 743 mmHg 93%
02:00 +8°C° 0 mm 2 mps 743 mmHg 93%
03:00 +8°C° 0 mm 2 mps 743 mmHg 93%
04:00 +8°C° 0 mm 2 mps 743 mmHg 93%
05:00 +7°C° 0 mm 2 mps 743 mmHg 92%
06:00 +6°C° 0 mm 2 mps 743 mmHg 92%
07:00 +7°C° 0 mm 2 mps 743 mmHg 86%
08:00 +9°C° 0 mm 2 mps 743 mmHg 81%
09:00 +10°C° 0 mm 2 mps 743 mmHg 75%
10:00 +11°C° 0 mm 3 mps 743 mmHg 71%
11:00 +12°C° 0 mm 3 mps 743 mmHg 66%
12:00 +13°C° 0 mm 3 mps 743 mmHg 61%
13:00 +13°C° 0.3 mm 3 mps 742 mmHg 62%
14:00 +13°C° 0.3 mm 3 mps 741 mmHg 64%
15:00 +13°C° 0.3 mm 4 mps 741 mmHg 65%
16:00 +11°C° 0.3 mm 3 mps 741 mmHg 71%
17:00 +10°C° 0.3 mm 3 mps 740 mmHg 77%
18:00 +9°C° 0.3 mm 2 mps 740 mmHg 83%
19:00 +9°C° 0.1 mm 2 mps 740 mmHg 85%
20:00 +8°C° 0.1 mm 2 mps 740 mmHg 87%
21:00 +8°C° 0.1 mm 2 mps 739 mmHg 89%
22:00 +8°C° 0.3 mm 3 mps 739 mmHg 90%
23:00 +7°C° 0.3 mm 4 mps 738 mmHg 90%

2 October, Friday

Time Temperature Precipitation Wind Pressure Humidity
00:00 +8°C° 0.3 mm 4 mps 738 mmHg 91%
01:00 +8°C° 0.6 mm 5 mps 738 mmHg 90%
02:00 +8°C° 0.6 mm 6 mps 738 mmHg 89%
03:00 +8°C° 0.6 mm 6 mps 737 mmHg 88%
04:00 +8°C° 0.1 mm 7 mps 737 mmHg 88%
05:00 +9°C° 0.1 mm 7 mps 737 mmHg 88%
06:00 +9°C° 0.1 mm 7 mps 737 mmHg 87%
07:00 +9°C° 0.4 mm 8 mps 737 mmHg 87%
08:00 +8°C° 0.4 mm 9 mps 737 mmHg 87%
09:00 +10°C° 0.4 mm 9 mps 737 mmHg 86%
10:00 +9°C° 1.3 mm 10 mps 737 mmHg 87%
11:00 +9°C° 1.3 mm 10 mps 738 mmHg 88%
12:00 +9°C° 1.3 mm 10 mps 738 mmHg 89%
13:00 +9°C° 1.1 mm 10 mps 738 mmHg 90%
14:00 +10°C° 1.1 mm 9 mps 739 mmHg 90%
15:00 +10°C° 1.1 mm 9 mps 739 mmHg 91%
16:00 +11°C° 1.5 mm 9 mps 740 mmHg 92%
17:00 +11°C° 1.5 mm 8 mps 740 mmHg 92%
18:00 +11°C° 1.5 mm 7 mps 740 mmHg 92%
19:00 +11°C° 1 mm 7 mps 741 mmHg 93%
20:00 +11°C° 1 mm 7 mps 741 mmHg 94%
21:00 +11°C° 1 mm 6 mps 741 mmHg 94%
22:00 +11°C° 0.2 mm 6 mps 741 mmHg 94%
23:00 +11°C° 0.2 mm 6 mps 741 mmHg 94%

3 October, Saturday

Time Temperature Precipitation Wind Pressure Humidity
00:00 +11°C° 0.2 mm 6 mps 741 mmHg 94%
01:00 +12°C° 0.2 mm 7 mps 741 mmHg 94%
02:00 +12°C° 0.2 mm 7 mps 740 mmHg 93%
03:00 +12°C° 0.2 mm 8 mps 740 mmHg 92%
04:00 +12°C° 0 mm 8 mps 740 mmHg 92%
05:00 +12°C° 0 mm 8 mps 740 mmHg 91%
06:00 +13°C° 0 mm 8 mps 740 mmHg 91%
07:00 +14°C° 0 mm 7 mps 740 mmHg 91%
08:00 +14°C° 0 mm 7 mps 740 mmHg 90%
09:00 +14°C° 0 mm 7 mps 740 mmHg 89%
10:00 +14°C° 0.1 mm 6 mps 740 mmHg 89%
11:00 +14°C° 0.1 mm 6 mps 740 mmHg 88%
12:00 +14°C° 0.1 mm 5 mps 740 mmHg 87%
13:00 +14°C° 0.4 mm 5 mps 740 mmHg 89%
14:00 +14°C° 0.4 mm 4 mps 740 mmHg 90%
15:00 +13°C° 0.4 mm 4 mps 739 mmHg 91%
16:00 +13°C° 1.1 mm 3 mps 739 mmHg 93%
17:00 +13°C° 1.1 mm 3 mps 739 mmHg 95%
18:00 +13°C° 1.1 mm 2 mps 739 mmHg 96%
19:00 +12°C° 1.5 mm 3 mps 739 mmHg 96%
20:00 +12°C° 1.5 mm 3 mps 738 mmHg 96%
21:00 +11°C° 1.5 mm 3 mps 738 mmHg 96%
22:00 +11°C° 2.4 mm 3 mps 737 mmHg 96%
23:00 +11°C° 2.4 mm 4 mps 737 mmHg 96%

4 October, Sunday

Time Temperature Precipitation Wind Pressure Humidity
00:00 +11°C° 2.4 mm 4 mps 736 mmHg 96%
01:00 +11°C° 3.6 mm 4 mps 735 mmHg 96%
02:00 +10°C° 3.6 mm 5 mps 735 mmHg 96%
03:00 +10°C° 3.6 mm 5 mps 734 mmHg 95%
04:00 +10°C° 2 mm 5 mps 734 mmHg 95%
05:00 +10°C° 2 mm 6 mps 734 mmHg 94%
06:00 +10°C° 2 mm 6 mps 734 mmHg 93%
07:00 +10°C° 1.1 mm 7 mps 734 mmHg 92%
08:00 +10°C° 1.1 mm 7 mps 733 mmHg 92%
09:00 +10°C° 1.1 mm 8 mps 733 mmHg 91%
10:00 +10°C° 0.7 mm 8 mps 733 mmHg 90%
11:00 +10°C° 0.7 mm 8 mps 733 mmHg 89%
12:00 +10°C° 0.7 mm 9 mps 733 mmHg 88%
13:00 +10°C° 0.4 mm 8 mps 734 mmHg 89%
14:00 +10°C° 0.4 mm 8 mps 734 mmHg 89%
15:00 +10°C° 0.4 mm 8 mps 734 mmHg 89%
16:00 +10°C° 0.1 mm 7 mps 734 mmHg 90%
17:00 +9°C° 0.1 mm 6 mps 735 mmHg 91%
18:00 +10°C° 0.1 mm 4 mps 735 mmHg 92%
19:00 +9°C° 0 mm 5 mps 736 mmHg 92%
20:00 +9°C° 0 mm 5 mps 737 mmHg 91%
21:00 +9°C° 0 mm 5 mps 738 mmHg 91%
22:00 +9°C° 0 mm 5 mps 738 mmHg 91%
23:00 +9°C° 0 mm 6 mps 739 mmHg 90%
Show more